Time,TemperatureF,DewpointF,PressureIn,WindDirection,WindDirectionDegrees,WindSpeedMPH,WindSpeedGustMPH,Humidity,HourlyPrecipIn,Conditions,Clouds,dailyrainin,SoftwareType,DateUTC
2013-02-15 00:01:00,34.4,29.5,29.99,NNW,335,0.0,1.0,82,0.00,,CLR,0.00,VWS V14.00,2013-02-15 05:01:00,
2013-02-15 00:16:00,34.0,29.1,29.99,North,349,0.0,0.0,82,0.00,,CLR,0.00,VWS V14.00,2013-02-15 05:16:00,
2013-02-15 00:31:00,33.7,29.1,30.00,NNW,344,0.0,0.0,83,0.00,,CLR,0.00,VWS V14.00,2013-02-15 05:31:00,
2013-02-15 00:46:00,33.4,29.1,30.00,NNW,342,0.0,1.0,84,0.00,,CLR,0.00,VWS V14.00,2013-02-15 05:46:00,
2013-02-15 01:01:00,33.4,29.4,30.01,NNW,335,0.0,0.0,85,0.00,,CLR,0.00,VWS V14.00,2013-02-15 06:01:00,
2013-02-15 01:16:00,32.9,28.9,30.01,NNW,339,0.0,1.0,85,0.00,,CLR,0.00,VWS V14.00,2013-02-15 06:16:00,
2013-02-15 01:31:00,33.1,29.7,30.00,SW,236,0.0,0.0,87,0.00,,CLR,0.00,VWS V14.00,2013-02-15 06:31:00,
2013-02-15 01:46:00,32.8,29.1,30.00,NNW,344,0.0,0.0,86,0.00,,CLR,0.00,VWS V14.00,2013-02-15 06:46:00,
2013-02-15 02:01:00,32.7,29.3,30.00,NNW,342,0.0,1.0,87,0.00,,CLR,0.00,VWS V14.00,2013-02-15 07:01:00,
2013-02-15 02:16:00,33.5,30.0,29.99,West,274,0.0,0.0,87,0.00,,CLR,0.00,VWS V14.00,2013-02-15 07:16:00,
2013-02-15 02:31:00,33.5,30.0,29.99,West,271,0.0,0.0,87,0.00,,CLR,0.00,VWS V14.00,2013-02-15 07:31:00,
2013-02-15 02:46:00,33.5,30.0,29.97,West,271,0.0,0.0,87,0.00,,CLR,0.00,VWS V14.00,2013-02-15 07:46:00,
2013-02-15 03:01:00,33.5,30.0,29.97,West,271,0.0,0.0,87,0.00,,CLR,0.00,VWS V14.00,2013-02-15 08:01:00,
2013-02-15 03:16:00,33.5,30.0,29.97,West,271,0.0,0.0,87,0.00,,CLR,0.00,VWS V14.00,2013-02-15 08:16:00,
2013-02-15 03:31:00,33.5,30.0,29.96,West,271,0.0,0.0,87,0.00,,CLR,0.00,VWS V14.00,2013-02-15 08:31:00,
2013-02-15 03:46:00,33.5,30.0,29.96,West,271,0.0,0.0,87,0.00,,CLR,0.00,VWS V14.00,2013-02-15 08:46:00,
2013-02-15 04:01:00,33.5,30.0,29.96,West,271,0.0,0.0,87,0.00,,CLR,0.00,VWS V14.00,2013-02-15 09:01:00,
2013-02-15 04:16:00,35.6,31.8,29.98,SW,219,1.0,1.0,86,0.00,,CLR,0.00,VWS V14.00,2013-02-15 09:16:00,
2013-02-15 04:31:00,35.8,32.0,29.98,SW,219,0.0,3.0,86,0.00,,CLR,0.00,VWS V14.00,2013-02-15 09:31:00,
2013-02-15 04:46:00,35.9,31.8,29.99,SW,219,0.0,2.0,85,0.00,,CLR,0.00,VWS V14.00,2013-02-15 09:46:00,
2013-02-15 05:01:00,35.8,31.7,29.99,SW,219,0.0,1.0,85,0.00,,CLR,0.00,VWS V14.00,2013-02-15 10:01:00,
2013-02-15 05:16:00,35.8,31.7,30.00,SW,219,1.0,1.0,85,0.00,,CLR,0.00,VWS V14.00,2013-02-15 10:16:00,
2013-02-15 05:31:00,35.8,31.7,29.95,SW,219,1.0,1.0,85,0.00,,CLR,0.00,VWS V14.00,2013-02-15 10:31:00,
2013-02-15 05:46:00,35.8,31.7,29.95,SW,219,1.0,1.0,85,0.00,,CLR,0.00,VWS V14.00,2013-02-15 10:46:00,
2013-02-15 06:01:00,35.8,31.7,29.95,SW,219,1.0,1.0,85,0.00,,CLR,0.00,VWS V14.00,2013-02-15 11:01:00,
2013-02-15 06:16:00,35.2,31.4,30.00,WSW,248,0.0,1.0,86,0.00,,CLR,0.00,VWS V14.00,2013-02-15 11:16:00,
2013-02-15 06:31:00,35.0,31.5,30.00,WSW,250,0.0,1.0,87,0.00,,CLR,0.00,VWS V14.00,2013-02-15 11:31:00,
2013-02-15 06:46:00,34.7,31.0,30.01,SW,233,0.0,1.0,86,0.00,,CLR,0.00,VWS V14.00,2013-02-15 11:46:00,
2013-02-15 07:01:00,34.4,30.9,30.01,West,261,0.0,0.0,87,0.00,,CLR,0.00,VWS V14.00,2013-02-15 12:01:00,
2013-02-15 07:16:00,33.7,30.2,30.01,WSW,251,0.0,0.0,87,0.00,,CLR,0.00,VWS V14.00,2013-02-15 12:16:00,
2013-02-15 07:31:00,33.7,30.5,30.02,SW,220,0.0,0.0,88,0.00,,CLR,0.00,VWS V14.00,2013-02-15 12:31:00,
2013-02-15 07:46:00,33.7,30.5,30.01,SW,220,0.0,0.0,88,0.00,,CLR,0.00,VWS V14.00,2013-02-15 12:46:00,
2013-02-15 08:01:00,34.6,31.7,30.02,SW,219,0.0,0.0,89,0.00,,CLR,0.00,VWS V14.00,2013-02-15 13:01:00,
2013-02-15 08:16:00,34.7,31.8,30.03,SW,219,0.0,0.0,89,0.00,,CLR,0.00,VWS V14.00,2013-02-15 13:16:00,
2013-02-15 08:31:00,34.7,31.8,29.99,SW,219,0.0,0.0,89,0.00,,CLR,0.00,VWS V14.00,2013-02-15 13:31:00,
2013-02-15 08:46:00,38.8,34.4,30.03,SW,220,1.0,2.0,84,0.00,,CLR,0.00,VWS V14.00,2013-02-15 13:46:00,
2013-02-15 09:01:00,39.8,34.1,30.03,SW,220,0.0,1.0,80,0.00,,CLR,0.00,VWS V14.00,2013-02-15 14:01:00,
2013-02-15 09:16:00,39.8,34.1,29.99,SW,220,0.0,0.0,80,0.00,,CLR,0.00,VWS V14.00,2013-02-15 14:16:00,
2013-02-15 09:31:00,46.5,34.6,30.02,WSW,248,3.0,7.0,63,0.00,,CLR,0.00,VWS V14.00,2013-02-15 14:31:00,
2013-02-15 09:46:00,48.6,35.4,30.01,WNW,302,1.0,5.0,60,0.00,,CLR,0.00,VWS V14.00,2013-02-15 14:46:00,
2013-02-15 10:01:00,50.2,35.1,30.01,West,280,2.0,6.0,56,0.00,,CLR,0.00,VWS V14.00,2013-02-15 15:01:00,
2013-02-15 10:16:00,51.9,36.3,30.02,WNW,287,0.0,6.0,55,0.00,,CLR,0.00,VWS V14.00,2013-02-15 15:16:00,
2013-02-15 10:31:00,54.2,35.0,30.01,West,260,0.0,6.0,48,0.00,,CLR,0.00,VWS V14.00,2013-02-15 15:31:00,
2013-02-15 10:46:00,55.3,34.3,30.01,WSW,239,2.0,7.0,45,0.00,,CLR,0.00,VWS V14.00,2013-02-15 15:46:00,
2013-02-15 11:01:00,56.3,34.7,30.00,SW,233,0.0,6.0,44,0.00,,CLR,0.00,VWS V14.00,2013-02-15 16:01:00,
2013-02-15 11:16:00,56.5,33.7,30.00,SW,232,0.0,6.0,42,0.00,,CLR,0.00,VWS V14.00,2013-02-15 16:16:00,
2013-02-15 11:31:00,56.6,33.8,30.00,NW,306,1.0,7.0,42,0.00,,CLR,0.00,VWS V14.00,2013-02-15 16:31:00,
2013-02-15 11:46:00,57.0,32.9,29.99,West,267,1.0,7.0,40,0.00,,CLR,0.00,VWS V14.00,2013-02-15 16:46:00,
2013-02-15 12:01:00,57.5,33.4,29.98,WSW,248,2.0,6.0,40,0.00,,CLR,0.00,VWS V14.00,2013-02-15 17:01:00,
2013-02-15 12:16:00,57.8,28.9,29.97,SSW,212,1.0,7.0,33,0.00,,CLR,0.00,VWS V14.00,2013-02-15 17:16:00,
2013-02-15 12:31:00,58.1,28.4,29.97,West,261,2.0,8.0,32,0.00,,CLR,0.00,VWS V14.00,2013-02-15 17:31:00,
2013-02-15 12:46:00,58.4,27.9,29.96,SW,227,3.0,6.0,31,0.00,,CLR,0.00,VWS V14.00,2013-02-15 17:46:00,
2013-02-15 13:01:00,58.9,27.5,29.95,NNW,346,1.0,10.0,30,0.00,,FEW060,0.00,VWS V14.00,2013-02-15 18:01:00,
2013-02-15 13:16:00,59.5,27.2,29.94,NW,323,2.0,6.0,29,0.00,,FEW060,0.00,VWS V14.00,2013-02-15 18:16:00,
2013-02-15 13:31:00,59.9,28.4,29.93,WSW,258,2.0,7.0,30,0.00,,FEW060,0.00,VWS V14.00,2013-02-15 18:31:00,
2013-02-15 13:46:00,60.2,27.0,29.93,NNW,340,2.0,7.0,28,0.00,,FEW060,0.00,VWS V14.00,2013-02-15 18:46:00,
2013-02-15 14:01:00,60.2,27.9,29.92,North,349,1.0,7.0,29,0.00,,FEW060,0.00,VWS V14.00,2013-02-15 19:01:00,
2013-02-15 14:16:00,60.7,29.1,29.88,NNW,343,1.0,8.0,30,0.00,,FEW060,0.00,VWS V14.00,2013-02-15 19:16:00,
2013-02-15 14:31:00,60.4,27.2,29.88,North,354,0.0,8.0,28,0.00,,FEW060,0.00,VWS V14.00,2013-02-15 19:31:00,
2013-02-15 14:46:00,60.1,27.8,29.87,North,356,5.0,7.0,29,0.00,,FEW060,0.00,VWS V14.00,2013-02-15 19:46:00,
2013-02-15 15:01:00,60.1,26.9,29.86,North,349,5.0,13.0,28,0.00,,FEW060,0.00,VWS V14.00,2013-02-15 20:01:00,
2013-02-15 15:16:00,59.8,25.8,29.86,North,0,1.0,10.0,27,0.00,,FEW060,0.00,VWS V14.00,2013-02-15 20:16:00,
2013-02-15 15:31:00,59.6,26.5,29.85,North,0,3.0,10.0,28,0.00,,FEW060,0.00,VWS V14.00,2013-02-15 20:31:00,
2013-02-15 15:46:00,59.3,27.1,29.85,North,0,2.0,9.0,29,0.00,,FEW060,0.00,VWS V14.00,2013-02-15 20:46:00,
2013-02-15 16:01:00,59.3,27.1,29.85,North,357,2.0,8.0,29,0.00,,FEW060,0.00,VWS V14.00,2013-02-15 21:01:00,
2013-02-15 16:16:00,59.3,26.2,29.87,North,356,1.0,10.0,28,0.00,,FEW060,0.00,VWS V14.00,2013-02-15 21:16:00,
2013-02-15 16:31:00,58.9,26.7,29.86,North,357,0.0,7.0,29,0.00,,FEW060,0.00,VWS V14.00,2013-02-15 21:31:00,
2013-02-15 16:46:00,58.7,27.4,29.86,North,356,0.0,7.0,30,0.00,,FEW060,0.00,VWS V14.00,2013-02-15 21:46:00,
2013-02-15 17:01:00,58.3,27.8,29.85,North,356,3.0,5.0,31,0.00,,FEW075,0.00,VWS V14.00,2013-02-15 22:01:00,
2013-02-15 17:16:00,57.5,27.1,29.83,North,357,2.0,5.0,31,0.00,,FEW075,0.00,VWS V14.00,2013-02-15 22:16:00,
2013-02-15 17:31:00,56.5,27.0,29.84,North,359,1.0,5.0,32,0.00,,FEW075,0.00,VWS V14.00,2013-02-15 22:31:00,
2013-02-15 17:46:00,56.3,27.6,29.84,North,359,0.0,6.0,33,0.00,,FEW075,0.00,VWS V14.00,2013-02-15 22:46:00,
2013-02-15 18:01:00,55.1,28.6,29.84,North,359,0.0,3.0,36,0.00,,FEW075,0.00,VWS V14.00,2013-02-15 23:01:00,
2013-02-15 18:16:00,53.1,30.0,29.87,NNW,332,1.0,1.0,41,0.00,,FEW075,0.00,VWS V14.00,2013-02-15 23:16:00,
2013-02-15 18:31:00,51.0,29.9,29.87,NNW,339,0.0,1.0,44,0.00,,FEW075,0.00,VWS V14.00,2013-02-15 23:31:00,
2013-02-15 18:46:00,49.1,29.8,29.88,NNW,347,0.0,0.0,47,0.00,,FEW075,0.00,VWS V14.00,2013-02-15 23:46:00,
2013-02-15 19:01:00,47.6,29.4,29.88,NNW,347,0.0,0.0,49,0.00,,FEW075,0.00,VWS V14.00,2013-02-16 00:01:00,
2013-02-15 19:16:00,46.2,30.0,29.88,North,350,0.0,0.0,53,0.00,,FEW075,0.00,VWS V14.00,2013-02-16 00:16:00,
2013-02-15 19:31:00,45.5,29.8,29.88,North,350,0.0,0.0,54,0.00,,BKN075,0.00,VWS V14.00,2013-02-16 00:31:00,
2013-02-15 19:46:00,44.9,29.7,29.88,NNW,344,0.0,0.0,55,0.00,,BKN075,0.00,VWS V14.00,2013-02-16 00:46:00,
2013-02-15 20:01:00,44.3,30.0,29.89,NNW,344,0.0,0.0,57,0.00,,BKN075,0.00,VWS V14.00,2013-02-16 01:01:00,
2013-02-15 20:16:00,43.9,30.5,29.88,NNW,342,0.0,0.0,59,0.00,,BKN075,0.00,VWS V14.00,2013-02-16 01:16:00,
2013-02-15 20:31:00,44.5,32.3,29.88,NW,326,0.0,0.0,62,0.00,,BKN075,0.00,VWS V14.00,2013-02-16 01:31:00,
2013-02-15 20:46:00,46.8,32.8,29.88,NNW,346,0.0,3.0,58,0.00,,BKN075,0.00,VWS V14.00,2013-02-16 01:46:00,
2013-02-15 21:01:00,47.9,31.1,29.89,NNW,347,0.0,1.0,52,0.00,,BKN075,0.00,VWS V14.00,2013-02-16 02:01:00,
2013-02-15 21:16:00,49.2,31.9,29.88,North,357,3.0,11.0,51,0.00,,BKN075,0.00,VWS V14.00,2013-02-16 02:16:00,
2013-02-15 21:31:00,51.0,35.4,29.89,North,356,2.0,14.0,55,0.00,,BKN075,0.00,VWS V14.00,2013-02-16 02:31:00,
2013-02-15 21:46:00,49.9,37.4,29.89,NNW,339,7.0,7.0,62,0.00,,BKN075,0.00,VWS V14.00,2013-02-16 02:46:00,
2013-02-15 22:01:00,48.9,36.9,29.91,North,0,0.0,10.0,63,0.00,,BKN075,0.00,VWS V14.00,2013-02-16 03:01:00,
2013-02-15 22:16:00,47.7,36.1,29.91,North,0,4.0,11.0,64,0.00,,BKN075,0.00,VWS V14.00,2013-02-16 03:16:00,
2013-02-15 22:31:00,46.7,35.2,29.91,North,0,0.0,11.0,64,0.00,,BKN075,0.00,VWS V14.00,2013-02-16 03:31:00,
2013-02-15 22:46:00,45.4,33.2,29.92,North,0,1.0,13.0,62,0.00,,BKN075,0.00,VWS V14.00,2013-02-16 03:46:00,
2013-02-15 23:01:00,44.6,32.4,29.91,North,0,0.0,8.0,62,0.00,,BKN070,0.00,VWS V14.00,2013-02-16 04:01:00,
2013-02-15 23:16:00,44.1,32.7,29.91,North,0,2.0,6.0,64,0.00,,BKN070,0.00,VWS V14.00,2013-02-16 04:16:00,
2013-02-15 23:31:00,43.5,32.5,29.91,North,0,1.0,7.0,65,0.00,,BKN070,0.00,VWS V14.00,2013-02-16 04:31:00,
2013-02-15 23:46:00,43.1,32.5,29.90,North,0,0.0,8.0,66,0.00,,BKN070,0.00,VWS V14.00,2013-02-16 04:46:00,